RH
6 4 5 8 11 14 16 14 12 9 6 3 1 1 1 1 1 1 1 1 1 1 1 1 1 2 2 2 2 2 2 2 2 2 2 2 2 2 2 2 2 2 2 2 2 2 2 2 2 2 2 2 2 2 2 2 2 2 2 3 8 23 54 80 90 94 98 98 98 99 99 99 99 99 99 99 99 99 99 99 99 99 99 99 99 99 99 99 99 99 99 99 99 100 100 100 100 100 100 100 100 100 99
2 2 2 4 7 10 12 11 10 7 4 2 1 1 1 1 1 1 1 1 1 1 1 1 1 2 2 2 2 2 2 2 2 2 2 2 2 2 2 2 2 2 2 2 2 2 2 2 2 2 2 2 2 2 2 2 2 2 3 3 6 20 50 72 82 87 92 96 98 98 98 98 99 99 99 99 99 99 99 98 98 98 99 99 99 99 99 99 99 99 99 99 99 99 99 100 100 100 100 100 100 100 100
2 2 2 2 3 4 6 6 6 5 3 2 1 1 1 1 1 1 1 1 1 1 2 2 2 2 2 2 2 2 2 2 2 2 2 2 2 2 2 2 2 2 2 2 2 2 2 2 2 2 2 2 2 2 2 2 2 2 3 3 6 19 48 69 78 81 83 88 93 95 94 97 98 98 98 98 98 98 98 98 98 98 98 99 99 99 99 99 99 99 99 99 100 100 100 100 100 100 100 100 100 100 100
2 2 2 2 2 1 2 2 2 2 1 1 1 1 1 1 1 1 1 1 2 2 2 2 2 2 2 2 2 2 2 2 2 2 2 2 2 2 2 2 2 2 2 2 2 2 2 2 2 2 2 2 2 2 2 2 2 2 3 2 6 18 45 61 70 74 78 81 85 88 88 93 96 97 97 97 97 97 98 98 98 97 98 98 99 98 98 98 98 99 99 99 99 100 100 100 100 100 100 100 100 100 100
1 1 1 1 1 1 1 1 1 1 1 1 1 1 1 1 2 2 2 2 2 2 2 2 2 2 2 2 2 2 2 2 2 2 2 2 2 2 2 2 2 2 2 3 3 3 2 3 3 2 2 2 3 3 3 3 3 3 3 3 7 16 34 51 62 68 71 74 76 79 80 81 85 88 92 92 94 95 96 97 97 96 97 98 98 98 98 98 98 98 98 98 99 99 100 100 100 99 99 100 100 100 100
1 1 1 1 1 1 1 1 1 1 1 1 1 1 1 1 2 2 2 2 2 2 2 2 2 2 2 2 2 2 2 2 2 2 2 2 2 2 2 2 3 3 3 3 3 3 3 3 3 3 3 3 3 3 3 3 3 3 3 3 6 14 25 37 49 58 63 65 67 69 68 68 70 74 77 80 84 87 90 92 94 96 95 97 98 98 97 97 98 98 98 98 98 99 99 99 100 99 99 99 99 100 100
1 1 1 1 1 1 1 1 1 1 1 1 1 1 1 1 2 2 2 2 2 2 2 2 2 2 2 2 2 2 2 2 2 2 2 2 2 2 2 3 3 3 3 3 3 3 3 3 3 3 3 3 3 3 3 3 3 3 3 3 6 11 20 29 38 46 55 58 61 63 62 60 59 60 64 68 71 74 78 82 86 91 95 96 97 98 97 96 97 97 97 97 98 99 99 99 99 99 99 99 99 99 100
2 2 1 1 1 1 1 1 1 1 1 1 1 1 1 1 2 2 2 2 2 2 2 2 2 2 2 2 2 2 2 2 2 2 2 2 2 2 3 3 3 3 3 3 3 3 4 4 4 4 4 4 4 4 4 4 4 4 4 3 4 8 14 23 31 38 44 49 54 58 60 56 53 52 54 56 60 62 67 71 77 84 89 94 96 97 96 96 96 97 96 95 96 98 99 99 99 99 99 99 99 99 99
2 2 2 2 1 1 1 1 1 1 1 1 1 1 1 1 2 2 2 2 2 2 2 2 2 2 2 2 2 2 2 2 2 2 2 2 2 3 3 3 3 3 3 3 3 4 4 4 4 4 4 4 4 4 4 4 4 4 4 4 5 6 10 14 19 24 30 36 42 48 52 51 48 45 46 48 50 52 56 60 65 70 78 88 93 95 96 96 96 97 98 96 96 98 99 99 99 99 99 99 99 99 99
3 2 2 2 2 2 2 2 2 2 1 1 1 1 1 1 2 2 2 2 2 2 2 2 2 2 2 2 2 2 2 2 2 2 2 2 3 3 3 3 3 3 3 3 4 4 4 4 4 4 4 4 4 4 4 4 4 4 4 4 5 6 7 9 10 12 16 20 27 34 40 42 40 39 39 41 42 44 47 51 55 60 66 77 85 90 93 94 94 95 97 96 97 98 98 99 99 99 99 99 99 99 99
4 3 3 2 2 2 2 2 2 2 2 2 2 2 2 2 2 2 2 2 2 2 2 2 2 2 2 2 2 2 2 2 2 2 3 3 3 3 3 3 3 3 4 4 4 4 4 4 4 4 4 4 4 4 4 5 5 5 5 5 5 6 6 8 8 7 7 9 13 18 24 28 30 31 33 34 36 38 40 45 49 54 58 66 74 81 85 82 84 88 95 96 97 98 98 98 99 99 99 99 99 99 99
6 5 4 4 3 2 2 2 2 2 2 2 2 2 2 2 2 2 2 2 2 2 2 2 2 2 2 2 2 2 2 2 2 3 3 3 3 3 3 3 3 4 4 4 4 4 4 4 4 4 4 4 4 4 5 5 5 5 5 5 5 5 6 8 7 6 5 5 6 8 10 14 18 22 26 28 30 32 35 40 44 49 53 60 64 68 71 68 76 86 92 95 97 98 97 98 99 99 99 99 100 99 99
8 7 6 5 4 4 3 2 2 2 2 2 2 2 2 2 2 2 2 2 2 2 2 2 2 2 2 2 2 2 2 2 3 3 3 3 3 3 3 3 3 4 4 4 4 4 4 4 4 4 4 4 4 4 5 5 5 5 5 5 5 6 6 6 7 6 5 4 4 4 4 6 8 13 19 23 26 29 31 36 41 46 49 56 58 58 61 57 63 74 82 90 95 97 97 97 98 99 99 99 99 100 100
11 10 8 8 6 5 4 4 3 3 2 2 2 2 2 2 2 2 2 2 2 2 2 2 2 2 2 2 2 2 2 3 3 3 3 3 3 3 3 3 4 4 4 4 4 4 4 4 4 4 4 4 4 4 4 5 5 5 5 5 5 6 6 6 6 6 5 4 4 3 3 3 4 6 12 18 24 28 31 34 39 44 46 50 53 54 50 52 54 57 64 77 88 95 97 96 97 98 99 99 99 100 100
15 14 12 10 9 8 6 5 4 4 3 3 3 3 3 3 3 2 2 2 2 2 2 2 2 2 2 2 2 2 3 3 3 3 3 3 3 3 3 3 4 4 4 4 4 4 4 4 4 4 4 4 4 4 4 4 5 5 5 5 5 6 6 6 6 6 6 5 4 4 3 3 3 4 6 13 22 30 34 36 41 45 46 48 50 51 50 53 51 49 53 65 78 90 96 96 95 96 98 99 99 99 100
19 18 16 14 12 10 9 8 6 5 4 4 3 3 3 3 3 3 3 2 2 2 2 2 2 2 2 2 2 3 3 3 3 3 3 3 3 3 4 4 4 4 4 4 4 4 4 4 4 4 4 4 4 4 4 4 4 4 5 5 5 5 6 6 6 6 7 6 5 4 3 3 3 3 3 7 17 29 40 42 48 52 49 50 54 57 58 61 62 59 52 56 66 80 93 94 93 93 96 98 99 99 99
22 22 20 18 16 14 12 10 8 7 6 5 4 4 4 3 3 3 3 3 2 2 2 2 2 3 3 3 3 3 3 3 3 3 3 3 3 4 4 4 4 4 4 4 4 4 4 4 4 4 4 4 4 4 4 4 4 4 4 5 5 5 6 6 6 6 7 7 6 5 4 3 3 3 3 4 11 24 40 49 56 58 53 54 58 63 66 75 80 76 62 54 58 70 88 90 92 92 92 94 97 99 99
24 24 23 22 20 18 16 14 12 10 8 6 5 4 4 4 3 3 3 3 3 3 3 3 3 3 3 3 3 3 3 3 3 3 3 3 3 4 4 4 4 4 4 4 4 4 4 4 4 4 4 4 4 4 4 4 4 4 4 4 5 5 6 6 6 6 6 7 7 6 4 3 3 3 3 3 7 15 30 50 60 61 56 58 61 65 71 82 87 86 80 65 60 65 83 92 93 92 88 89 92 96 99
26 26 26 24 24 22 20 18 16 13 11 9 8 6 5 4 4 4 3 3 3 3 3 3 3 3 3 3 3 3 3 3 3 3 3 3 3 3 4 4 4 4 4 4 4 4 4 4 4 4 4 4 4 4 4 4 4 4 4 4 4 5 5 6 6 6 6 7 7 7 6 4 3 3 3 3 4 9 18 39 54 61 60 60 61 67 78 84 89 92 91 80 68 63 76 90 97 96 91 88 90 94 99
27 27 27 26 26 24 24 22 20 17 15 12 10 8 7 6 5 5 4 4 4 4 3 3 3 3 3 3 3 3 3 3 3 3 3 3 3 3 3 3 3 4 4 4 4 4 4 4 4 4 4 4 4 4 4 4 4 4 4 4 4 5 5 6 6 6 7 7 7 7 7 6 5 3 3 3 4 6 12 26 44 58 61 58 63 72 82 86 92 96 94 88 77 68 68 83 94 99 97 92 92 94 98
28 28 27 27 27 26 26 24 23 21 19 16 14 12 10 8 7 6 6 5 4 4 4 4 4 3 3 3 3 3 3 3 3 3 3 3 3 3 3 3 3 3 3 4 4 4 4 4 4 4 4 4 3 3 3 3 4 4 4 4 4 5 5 6 6 7 7 7 7 8 8 7 6 4 3 3 3 4 8 18 35 51 58 57 66 79 86 88 92 96 96 92 88 81 72 76 88 98 99 97 96 96 99
27 28 28 28 27 27 27 26 26 24 22 20 18 16 14 11 10 8 7 7 6 6 5 5 4 4 3 3 3 3 3 3 3 3 3 3 3 3 3 3 3 3 3 3 4 4 4 4 4 4 4 4 3 3 3 3 3 3 4 4 4 4 5 6 6 7 7 7 8 8 8 8 7 5 4 3 3 3 4 10 23 37 50 55 65 78 89 88 92 94 96 93 93 91 84 78 85 94 98 99 98 98 99
27 27 28 28 28 28 28 28 27 26 25 23 22 20 17 15 13 11 10 9 8 7 6 6 5 4 4 4 4 4 4 3 3 4 3 3 3 3 3 3 3 3 3 3 3 3 3 4 4 4 4 4 4 3 3 3 3 3 3 4 4 4 5 6 6 7 7 8 8 8 8 8 8 6 4 3 3 3 3 6 15 26 34 42 50 63 84 89 91 92 92 92 92 94 92 86 85 89 97 98 99 99 99
27 27 27 28 28 28 28 28 28 28 27 26 24 23 21 18 16 15 13 12 10 9 8 8 7 6 5 4 4 4 4 4 4 4 4 4 4 3 3 3 3 3 3 3 3 3 3 3 3 4 4 4 3 3 3 3 3 3 3 3 4 4 4 5 6 7 7 8 8 8 8 8 8 8 6 4 3 3 3 4 9 17 24 24 31 46 69 87 90 88 89 88 90 92 95 92 87 85 94 96 97 97 98
26 26 27 27 27 28 28 28 28 28 28 28 27 26 24 22 20 18 17 15 14 12 11 10 8 8 6 6 5 5 4 4 4 4 4 4 4 4 4 4 4 4 4 4 3 3 3 3 3 3 4 3 3 3 3 3 3 3 3 3 3 4 4 5 6 6 7 8 8 8 8 8 8 8 6 4 3 3 3 3 4 8 14 16 19 30 54 76 82 82 83 82 84 88 95 94 89 87 94 96 96 96 98
26 26 26 27 27 27 28 28 28 29 29 29 29 28 26 25 24 22 21 19 18 16 14 13 12 10 8 8 7 6 5 5 5 4 4 4 4 4 4 4 4 4 4 4 4 4 3 3 3 3 3 3 3 3 3 3 3 3 3 3 3 3 4 4 5 6 7 8 8 8 8 8 8 8 7 4 4 3 3 3 4 6 10 15 14 18 37 60 70 72 71 75 78 84 96 92 89 89 96 97 97 96 97
26 26 26 26 26 27 27 28 28 29 29 30 30 30 28 27 26 25 24 23 21 20 18 17 15 14 12 10 8 8 6 6 5 5 5 4 4 4 4 4 4 4 4 4 4 4 3 3 3 3 3 3 3 3 3 3 3 3 3 3 3 3 3 4 5 6 6 7 8 8 8 8 8 8 8 5 4 3 3 3 4 6 9 10 9 10 18 45 55 56 58 78 88 93 96 88 88 92 98 98 98 97 96
26 26 26 26 26 26 27 27 28 28 29 30 30 30 30 29 28 27 26 26 24 23 22 20 19 18 16 13 11 10 8 7 6 6 6 5 5 5 5 5 5 5 4 4 4 4 4 3 3 3 3 3 3 3 3 3 3 3 3 2 2 2 3 4 4 5 6 7 8 8 8 8 8 8 8 5 4 3 3 3 4 4 6 6 6 7 12 31 43 50 56 81 92 94 95 92 93 96 97 96 97 97 96
24 25 26 26 26 26 26 26 27 28 28 29 30 30 30 30 30 29 28 28 27 26 24 24 22 21 19 17 15 12 10 8 8 8 7 7 6 6 6 6 6 6 5 5 4 4 4 4 4 3 3 3 3 3 3 3 3 2 2 2 2 2 2 3 4 5 6 7 7 8 8 8 8 8 8 5 4 4 4 3 3 4 4 4 4 6 10 28 41 52 63 84 92 93 94 94 95 96 97 97 97 96 96
24 24 24 25 26 26 26 26 27 27 28 29 30 30 31 31 31 30 30 30 29 28 27 26 26 24 23 21 18 16 13 12 10 10 10 9 8 8 8 7 7 6 6 6 5 5 4 4 4 4 3 3 3 3 3 3 2 2 2 2 2 2 2 3 3 4 5 6 7 8 8 8 8 8 8 6 6 5 4 4 3 4 4 4 5 7 11 28 40 54 77 88 92 92 93 94 95 96 97 97 96 95 97
22 23 24 24 25 26 26 26 26 27 27 28 29 30 30 31 31 31 31 30 30 30 29 28 28 27 26 24 22 20 17 15 14 14 13 12 11 10 10 8 8 8 7 6 6 5 5 4 4 4 4 3 3 3 3 3 3 2 2 2 2 2 2 2 3 4 5 6 6 7 8 8 8 8 8 8 7 7 7 6 4 4 4 4 6 8 10 29 45 62 85 90 92 92 92 93 95 96 97 97 97 97 96
22 22 23 24 24 25 25 26 26 26 26 27 28 29 30 30 31 31 32 31 31 31 31 30 29 28 28 27 26 24 21 20 18 17 16 15 14 13 12 10 10 8 8 8 7 6 6 5 4 4 4 4 3 3 3 3 3 3 2 2 2 2 2 2 3 3 4 5 6 7 7 8 8 8 8 8 8 8 8 8 7 6 4 4 4 5 7 26 43 61 81 90 92 92 92 93 94 96 97 97 97 97 97
22 22 22 23 24 24 24 25 26 26 26 26 27 28 29 30 31 31 32 32 32 32 32 31 31 30 30 29 28 27 26 24 23 22 20 19 17 16 14 13 12 10 10 9 8 8 7 6 6 5 4 4 4 4 3 3 3 3 3 3 2 2 2 2 2 3 4 5 6 7 7 8 8 8 8 8 8 8 8 8 8 7 7 6 6 6 7 16 32 53 76 88 92 92 92 93 95 96 97 97 97 96 95
22 22 22 23 23 24 24 24 25 26 26 26 27 28 28 30 30 31 32 32 32 32 32 32 32 32 32 32 31 31 30 29 27 26 24 22 20 18 17 15 14 12 11 11 10 9 8 8 7 6 5 5 4 4 4 4 4 4 3 3 3 2 2 2 2 3 4 5 6 6 7 8 8 8 8 8 8 8 8 7 7 7 8 8 8 9 10 11 22 40 60 78 86 90 92 94 96 96 97 97 97 96 94
24 23 23 23 23 24 24 24 24 26 26 26 26 27 28 29 30 31 31 32 32 32 33 33 33 33 34 34 34 33 33 32 31 29 28 26 24 22 20 18 17 16 14 13 12 11 10 9 8 8 7 6 6 5 5 4 4 4 4 4 3 3 2 2 2 3 3 4 6 6 7 8 8 9 10 10 10 9 8 8 8 7 7 8 9 10 10 12 17 26 40 58 72 83 91 94 96 97 97 97 97 96 94
26 25 24 24 23 23 24 24 24 25 26 26 26 27 27 28 29 30 30 31 31 32 32 32 33 33 34 34 35 35 35 34 33 32 31 30 28 26 24 22 20 19 17 16 14 13 12 11 10 10 9 8 8 7 6 6 5 5 5 4 4 4 3 3 2 3 3 4 5 6 7 8 9 10 10 10 10 10 9 8 8 8 7 8 8 8 10 11 14 18 23 39 57 74 86 94 97 97 97 97 96 95 96
28 27 26 25 24 24 24 24 24 24 26 26 26 27 27 28 28 29 30 30 31 32 32 32 33 34 34 35 36 36 36 36 35 35 34 33 31 29 27 26 24 22 20 19 17 16 14 14 13 12 11 10 8 8 7 6 6 6 6 5 5 4 4 3 3 3 3 4 5 6 7 8 10 10 10 11 10 10 10 9 8 8 8 7 7 7 8 8 10 11 13 20 37 56 73 90 97 97 97 97 96 94 97
29 28 28 26 26 24 24 24 24 24 26 26 26 26 27 27 28 28 29 30 31 32 32 33 34 34 34 35 36 36 37 37 37 36 36 35 34 32 31 29 27 25 24 22 20 18 17 16 15 14 12 11 10 9 8 7 7 6 6 6 5 5 4 4 4 3 3 4 5 6 7 8 10 10 11 11 11 10 10 9 8 8 8 8 8 7 7 8 8 9 9 11 22 36 53 83 95 97 97 97 97 96 96
30 29 28 27 26 26 25 24 24 25 26 26 26 26 27 27 27 28 28 29 30 30 31 32 33 33 34 35 35 36 36 37 37 37 38 37 37 36 34 32 30 28 26 24 22 21 20 19 17 16 14 13 11 10 8 8 8 7 6 6 6 6 5 5 4 4 4 4 4 5 6 8 9 10 12 12 11 10 10 9 8 8 8 8 8 8 8 8 8 8 8 10 14 24 38 74 91 97 97 97 97 96 95
30 29 28 27 27 26 26 26 26 26 26 26 26 26 26 27 27 27 28 28 28 29 30 31 31 32 32 33 34 34 35 36 36 37 37 37 37 37 36 34 32 30 29 27 26 24 23 22 20 18 16 14 12 11 10 10 8 8 7 6 6 6 6 5 5 4 4 4 4 5 6 8 9 10 12 12 12 11 10 10 8 8 8 8 8 8 8 8 8 8 8 9 10 14 28 60 81 93 96 97 96 96 95
29 28 28 27 27 27 27 27 27 27 27 27 27 27 27 27 27 27 27 28 28 28 29 29 30 30 30 31 32 32 33 34 35 36 36 37 37 38 37 36 34 33 32 30 29 28 26 24 23 21 18 16 14 12 12 11 10 9 8 7 6 6 6 5 5 5 4 4 4 5 6 7 9 11 12 12 12 11 10 10 9 8 8 8 8 8 8 8 8 8 8 10 10 14 23 42 61 80 92 95 96 96 96
29 29 28 28 28 28 28 28 29 29 29 29 28 28 28 27 27 27 27 27 28 28 28 28 29 29 29 30 30 31 32 33 34 34 35 36 37 38 38 38 37 36 35 33 32 31 30 28 26 24 21 18 16 15 14 14 12 10 9 8 7 6 6 5 5 5 5 5 5 5 5 7 9 11 13 13 12 11 10 10 10 8 8 8 8 8 8 8 8 8 10 10 10 12 18 26 39 57 78 89 94 96 96
30 30 30 29 29 29 29 29 30 30 30 30 30 29 29 28 28 27 27 27 27 28 28 28 28 29 29 29 30 30 30 31 32 33 34 35 36 37 38 38 38 38 36 35 34 33 32 31 29 26 24 21 20 18 18 16 14 13 11 10 8 7 6 6 6 6 6 5 5 5 5 7 9 12 14 14 13 12 12 11 10 10 8 8 8 8 8 8 8 9 10 10 10 10 12 17 26 40 56 77 89 94 95
32 32 31 30 30 30 30 30 30 30 30 30 30 29 29 28 28 28 28 27 27 27 28 28 28 28 28 29 29 29 30 30 31 31 32 33 34 36 36 37 38 38 37 36 36 35 34 33 32 30 27 25 24 22 21 20 18 15 13 11 10 8 8 7 7 6 6 6 6 5 5 6 9 12 14 15 14 14 13 12 11 10 9 8 8 8 8 8 9 10 10 10 10 10 10 11 19 28 37 62 80 92 95
34 33 32 32 31 31 30 30 30 30 30 30 30 29 29 29 28 28 28 28 27 27 27 28 28 28 28 28 28 29 29 29 30 30 31 32 32 34 34 35 36 37 37 37 36 36 36 35 34 32 30 29 28 26 25 23 21 18 16 13 12 10 9 8 8 7 7 6 6 5 5 6 10 12 16 16 16 15 14 13 12 10 10 9 8 8 8 9 10 10 10 11 10 10 10 10 13 20 29 45 65 83 93
35 34 34 32 32 32 31 31 31 31 30 30 29 29 28 28 28 28 28 28 28 27 27 27 28 28 28 28 28 28 29 29 29 30 30 30 31 32 33 34 35 35 36 36 36 36 36 36 35 34 34 33 32 30 29 26 24 21 18 16 14 12 10 10 8 8 8 7 6 6 5 6 10 13 16 17 18 17 16 15 13 12 10 10 8 8 8 9 10 10 11 11 11 11 10 10 11 15 21 30 46 66 87
36 35 34 33 32 32 32 32 32 31 30 30 29 28 28 28 28 28 28 28 28 28 28 28 28 28 28 28 28 28 28 28 29 29 29 30 30 31 32 32 33 34 34 36 36 36 36 36 36 36 36 36 35 34 32 30 27 24 21 19 17 14 12 11 10 10 8 8 7 6 6 7 10 14 17 19 19 19 18 16 15 13 12 10 10 8 8 9 10 10 11 12 12 12 12 11 12 12 14 18 28 47 76
35 35 34 33 33 33 32 32 31 31 30 29 29 28 28 27 27 28 28 28 28 28 28 28 28 28 28 28 28 28 28 28 28 28 28 29 29 30 30 31 32 32 33 34 35 36 36 36 37 37 37 36 36 35 34 31 28 26 24 22 19 16 15 13 12 11 10 8 7 7 6 8 11 15 18 20 20 20 19 18 16 15 13 12 10 9 8 8 10 10 11 12 12 13 13 12 12 12 11 14 21 37 65
34 34 33 33 32 32 32 31 31 30 30 29 28 28 27 28 28 28 28 29 29 29 30 30 30 29 29 29 29 29 28 28 28 28 28 28 28 29 29 29 30 31 32 32 33 34 34 34 35 36 36 36 36 35 34 32 30 28 26 24 21 19 18 16 14 12 10 9 8 8 8 10 12 16 19 21 21 21 20 19 18 17 15 13 11 10 9 8 9 10 11 12 13 13 13 13 12 12 11 12 18 31 52
33 32 32 32 32 31 31 30 30 30 30 29 28 28 28 29 29 30 30 30 30 30 30 30 30 30 30 30 30 29 29 29 29 29 28 28 28 28 28 29 29 29 30 30 31 31 32 32 33 34 35 35 35 34 34 32 31 30 28 26 24 22 20 18 15 13 11 10 10 9 9 10 14 17 20 21 22 22 22 21 20 19 17 15 13 11 10 9 9 10 11 12 13 14 14 14 14 13 12 12 14 20 32
32 32 31 31 30 30 30 30 30 30 30 30 30 30 30 30 30 31 31 31 31 31 32 32 31 31 31 31 30 30 30 30 30 30 30 29 29 29 29 29 29 30 30 30 30 31 31 32 32 33 34 34 35 35 35 34 33 32 31 29 27 26 23 20 18 15 13 12 11 10 10 12 15 18 20 22 23 24 23 22 21 20 19 18 15 12 10 10 10 10 11 12 13 14 14 14 14 13 12 12 12 14 20
32 32 32 31 31 31 31 31 31 31 31 31 31 31 31 32 32 32 32 32 32 32 32 33 33 33 32 32 32 32 32 32 32 31 31 31 30 30 30 30 32 32 33 33 33 33 32 32 33 33 34 34 35 35 36 36 36 35 34 33 31 29 26 23 20 17 14 13 12 12 12 14 16 18 21 23 24 25 24 23 22 22 21 19 17 14 11 10 10 10 11 12 13 14 14 14 14 14 13 12 12 12 17
33 33 32 32 32 32 32 33 33 32 33 33 33 33 33 34 34 34 34 34 34 34 34 34 34 34 34 34 34 34 34 33 33 33 32 32 32 32 34 35 35 36 35 35 35 35 35 35 34 34 34 35 35 36 36 37 37 37 37 36 34 32 28 25 22 18 16 14 14 14 14 15 17 19 21 24 26 27 26 24 23 23 22 20 18 16 12 10 10 10 11 12 12 14 14 14 14 14 14 13 12 13 16
34 34 34 33 34 34 34 34 34 34 34 34 34 35 35 35 35 35 35 35 35 35 36 35 35 35 36 36 35 35 35 35 35 35 35 34 34 34 36 37 37 36 36 37 38 38 36 36 36 36 36 36 37 37 37 38 38 38 38 37 35 33 30 26 23 20 17 16 15 15 15 17 18 20 22 26 29 30 28 26 24 24 23 22 20 17 14 12 10 10 11 12 13 14 14 15 15 15 15 14 14 13 14
35 35 35 35 35 35 35 35 35 35 36 36 36 36 36 36 36 36 36 37 37 37 37 37 37 37 37 37 37 37 37 37 37 37 37 36 36 36 36 37 38 39 40 40 40 40 38 38 38 38 38 38 38 38 38 38 39 38 38 37 36 33 30 27 24 21 19 18 17 17 18 19 19 21 24 31 34 34 30 27 25 24 24 23 21 18 15 12 11 11 11 12 13 14 15 15 16 16 16 16 15 14 14
37 37 37 37 37 37 37 37 37 37 37 37 37 37 38 38 38 38 38 38 38 38 38 39 39 38 38 38 38 38 39 39 39 39 39 39 38 38 38 38 39 40 40 40 40 40 40 39 39 39 38 38 38 38 38 39 38 38 37 36 34 32 30 27 25 22 20 19 20 22 24 23 23 26 33 41 43 42 35 28 26 25 26 24 22 20 16 14 12 11 12 12 13 14 15 16 16 17 17 16 16 15 15
38 38 38 38 38 38 38 38 38 38 38 38 38 39 39 39 39 40 40 40 40 40 40 40 40 40 40 40 40 40 40 40 40 40 40 40 40 40 40 39 40 40 40 40 39 39 39 39 39 38 38 37 37 37 37 37 37 36 36 34 33 32 30 27 26 24 22 23 27 31 32 30 32 38 48 54 54 49 40 32 28 26 26 26 24 21 18 14 13 12 12 13 14 14 15 16 16 17 18 18 17 16 16
40 40 40 40 40 40 40 40 40 40 40 40 40 40 40 40 40 41 41 41 41 41 41 42 42 42 42 42 42 42 42 42 42 42 42 42 42 42 42 42 41 40 40 39 39 39 40 40 40 39 38 38 38 38 37 37 36 36 35 34 33 32 30 28 26 24 24 27 31 34 33 36 42 51 59 61 60 57 51 41 34 28 27 26 26 23 19 16 14 13 13 14 15 15 15 16 17 18 18 18 18 18 21
42 42 42 42 42 42 42 42 42 42 42 42 42 42 42 42 42 42 42 42 43 43 43 43 43 43 43 43 43 43 43 43 43 43 44 44 44 44 44 43 43 42 42 42 40 40 40 41 42 42 41 40 40 40 39 38 37 37 36 35 34 32 30 28 27 26 25 26 28 29 31 40 49 57 61 62 64 64 61 51 41 33 29 28 27 24 21 18 15 14 14 15 16 16 16 16 17 18 19 19 19 20 23
43 43 43 43 43 43 43 43 43 43 43 43 43 43 44 44 44 44 44 44 44 44 44 45 45 45 45 45 45 45 45 45 45 45 45 46 46 46 46 46 46 45 44 43 42 42 41 40 41 42 42 42 42 42 41 40 39 38 37 36 35 33 32 30 28 27 26 25 25 26 31 42 51 57 59 62 65 68 66 56 45 36 30 30 28 26 23 19 17 16 16 16 17 17 17 18 18 20 20 21 21 22 24
44 44 44 44 44 44 45 45 45 45 45 45 45 45 45 45 45 45 46 46 46 46 46 46 46 46 46 46 46 46 46 46 46 47 47 47 47 48 49 49 48 48 47 46 46 44 43 42 42 40 41 42 43 43 42 42 40 39 38 36 35 34 32 31 30 28 26 24 24 26 31 42 49 53 55 60 65 69 68 58 47 38 32 31 30 28 24 21 18 16 16 17 18 18 18 19 20 21 22 22 22 23 24
Wind_Speed
4 3 3 2 2 2 1 1 2 2 3 4 4 5 5 5 6 6 6 7 7 7 7 7 6 6 6 5 5 5 5 5 6 6 7 7 8 8 8 8 9 9 9 9 9 9 9 9 9 9 9 9 9 9 9 9 9 9 9 8 9 11 12 11 10 10 11 11 11 11 12 12 12 12 12 12 13 12 12 12 13 13 13 13 13 13 13 13 13 13 13 13 13 13 13 14 14 14 14 14 14 14 14
4 3 3 3 2 2 2 2 2 2 2 3 3 4 4 4 5 5 5 6 6 6 6 6 6 6 5 5 5 5 5 5 5 5 6 6 7 7 8 8 8 8 8 9 9 9 9 9 9 9 9 9 9 9 9 9 9 9 9 8 8 10 11 10 10 10 10 10 10 10 10 11 11 11 11 11 12 12 12 12 12 12 12 12 13 13 13 13 13 13 13 13 13 13 13 13 13 13 14 14 13 13 13
4 4 3 3 3 3 2 2 2 2 2 2 3 3 3 3 4 4 4 5 5 5 6 6 5 5 5 5 4 4 4 4 4 5 5 5 6 6 7 7 7 8 8 8 8 8 8 8 8 9 9 9 9 9 9 9 9 9 9 8 8 9 10 10 9 9 9 9 9 9 9 10 10 10 11 11 11 11 11 11 11 12 12 12 12 12 12 12 12 12 12 13 13 13 12 12 12 13 13 13 13 13 13
4 4 4 4 4 4 3 3 2 2 2 2 2 3 3 3 3 3 4 4 4 4 5 5 5 5 4 4 4 4 4 4 4 4 4 5 5 5 6 6 7 7 7 7 7 8 8 8 8 8 8 9 9 9 9 9 9 9 9 9 8 8 9 9 9 9 9 9 9 9 9 9 9 10 10 10 10 10 11 11 11 11 12 12 12 11 11 11 11 12 12 12 12 12 12 12 12 12 12 13 13 13 13
4 4 4 4 4 4 4 4 3 2 2 2 2 3 3 2 2 3 3 3 3 3 4 4 4 4 4 4 4 4 3 3 3 3 3 4 4 5 5 5 6 6 6 7 7 7 7 7 8 8 8 8 9 9 9 9 9 10 10 10 8 8 8 8 9 9 9 9 9 8 9 9 9 9 9 10 10 10 10 11 11 11 11 11 11 11 11 11 11 11 11 11 12 12 12 12 12 12 12 12 12 12 12
5 5 5 5 5 5 5 5 4 3 3 2 2 3 3 2 2 2 2 2 3 3 3 3 3 3 3 3 3 3 3 3 3 3 3 3 4 4 4 5 5 5 6 6 6 6 7 7 7 7 8 8 8 9 9 9 10 10 10 10 9 8 8 8 8 9 9 9 9 9 9 9 9 9 9 9 10 10 10 10 10 11 11 11 11 11 11 11 11 11 11 11 11 11 12 11 12 12 12 12 12 12 12
5 5 5 5 5 5 5 5 5 4 4 3 3 3 3 3 2 2 2 2 2 2 2 2 2 2 2 2 2 2 2 2 2 2 2 3 3 3 4 4 4 5 5 5 6 6 6 6 7 7 7 8 8 8 9 9 9 10 10 10 9 8 8 8 8 9 9 9 9 9 9 9 9 9 9 9 10 10 10 10 10 10 11 11 11 11 11 11 11 11 11 10 11 11 11 11 11 12 12 12 12 12 12
5 5 5 5 6 6 6 6 5 5 4 4 3 3 3 3 3 3 2 2 2 2 2 2 1 1 1 1 1 1 1 2 2 2 2 2 3 3 3 4 4 4 5 5 5 5 6 6 6 6 7 7 7 8 8 9 9 9 10 10 10 9 8 8 8 9 9 9 9 9 9 9 9 9 9 10 10 10 10 10 10 10 10 11 11 11 11 11 12 12 12 11 11 11 11 11 11 11 12 12 12 12 12
5 6 6 6 6 6 6 6 6 6 5 5 4 4 3 3 3 3 3 2 2 2 2 1 1 1 1 1 1 1 1 1 2 2 2 2 3 3 3 3 4 4 4 5 5 5 5 6 6 6 6 7 7 7 8 8 8 9 9 10 10 9 8 8 8 8 8 9 9 9 10 10 10 10 10 10 10 10 10 10 10 10 10 11 11 11 11 12 12 12 12 12 11 11 11 11 11 11 12 12 12 12 12
6 6 6 6 6 7 7 7 7 6 6 5 5 4 4 4 3 3 3 3 2 2 2 1 1 1 0 0 1 1 1 2 2 2 2 3 3 3 3 3 4 4 4 4 5 5 5 5 6 6 6 6 7 7 7 7 8 8 8 9 9 9 8 8 8 8 8 8 8 9 9 10 10 10 10 10 10 10 10 10 10 10 10 10 11 11 11 12 12 12 12 12 12 12 11 11 11 11 12 12 12 12 12
6 6 6 7 7 7 7 7 7 7 7 6 6 5 5 4 4 4 3 3 3 2 2 1 1 1 1 1 1 1 2 2 2 3 3 3 3 3 4 4 4 4 4 4 5 5 5 5 6 6 6 6 6 6 7 7 7 7 8 8 8 9 9 8 8 8 8 8 8 8 9 9 9 9 10 10 10 10 10 10 10 10 10 10 10 11 11 11 11 12 12 12 12 12 12 12 11 11 11 12 12 12 12
6 6 7 7 7 7 8 8 8 8 7 7 6 6 5 5 5 4 4 4 3 3 2 2 2 2 2 2 2 2 2 3 3 3 3 3 4 4 4 4 4 4 4 4 5 5 5 5 6 6 6 6 6 6 6 6 7 7 7 7 8 8 9 8 8 8 8 8 8 8 8 8 9 9 9 10 10 10 10 10 10 10 10 10 10 10 11 11 11 12 12 12 13 13 13 12 12 11 11 11 12 12 12
6 7 7 7 8 8 8 8 8 8 8 8 7 7 6 6 5 5 5 4 4 3 3 3 2 2 2 3 3 3 3 3 4 4 4 4 4 4 5 5 5 5 5 5 5 5 5 5 6 6 6 6 6 6 6 6 7 7 7 7 7 8 8 9 9 9 8 8 8 8 8 8 8 9 9 9 10 10 10 10 10 10 10 10 10 10 11 11 11 11 12 12 12 13 13 13 12 12 11 11 11 12 12
7 7 7 7 8 8 9 9 9 9 9 9 8 8 7 7 6 6 5 5 4 4 4 3 3 3 3 3 4 4 4 4 4 5 5 5 5 5 5 5 5 5 5 5 5 5 5 6 6 6 6 6 6 6 6 6 7 7 7 7 8 8 8 9 9 9 9 9 9 8 8 8 8 9 9 9 10 10 10 10 10 10 10 10 10 10 10 11 11 11 11 12 12 13 13 13 13 12 11 11 11 11 12
7 7 7 8 8 8 9 9 9 10 10 10 9 9 8 8 7 7 6 6 5 5 5 4 4 4 4 4 5 5 5 5 5 5 6 6 6 6 6 6 6 6 6 6 6 6 6 6 6 6 6 6 6 6 7 7 7 7 7 8 8 8 9 9 10 10 10 9 9 9 9 9 9 9 9 9 10 10 11 11 11 11 11 11 11 10 11 11 11 11 11 12 12 13 13 14 14 13 12 11 11 11 12
8 7 8 8 8 9 9 10 10 10 10 10 10 10 9 9 8 7 7 6 6 6 5 5 5 5 5 5 5 6 6 6 6 6 6 6 6 6 7 7 7 7 6 6 6 6 6 6 6 7 7 7 7 7 7 7 7 7 8 8 8 8 9 9 10 10 10 10 10 10 10 9 9 9 9 9 10 10 11 11 12 12 12 11 11 11 11 11 11 12 12 12 12 12 13 14 14 14 13 12 11 11 12
8 8 8 8 9 9 10 10 10 11 11 11 11 10 10 9 9 8 7 7 7 6 6 6 6 6 6 6 6 7 7 7 7 7 7 7 7 7 7 7 7 7 7 7 7 7 7 7 7 7 7 7 7 7 7 8 8 8 8 8 8 9 9 9 10 10 11 11 11 11 10 10 10 9 9 9 10 10 11 11 12 12 12 12 12 12 11 11 12 12 12 12 12 11 12 13 14 14 14 13 12 11 12
9 9 9 9 9 10 10 11 11 11 11 12 11 11 11 10 10 9 8 8 8 7 7 7 7 7 7 7 7 7 7 8 8 8 8 8 8 8 8 8 8 8 8 8 8 8 8 8 8 8 8 8 8 8 8 8 8 8 8 8 9 9 9 10 10 10 11 11 11 11 11 11 10 10 10 9 10 10 10 11 12 12 12 12 12 12 12 12 12 12 13 12 12 11 11 12 13 14 15 14 12 12 12
10 10 10 10 10 11 11 11 12 12 12 12 12 12 12 11 10 10 9 9 9 8 8 8 8 8 8 8 8 8 8 8 8 8 9 9 9 9 9 9 9 9 9 9 8 8 8 8 8 8 8 8 8 8 8 8 8 9 9 9 9 9 9 10 10 10 11 11 12 12 12 11 11 11 10 10 10 10 10 10 11 12 12 13 13 12 12 12 12 12 13 13 12 11 11 11 12 13 14 14 13 13 13
11 11 11 11 11 11 12 12 12 12 13 13 13 13 12 12 11 11 10 10 9 9 9 9 9 8 8 8 8 9 9 9 9 9 9 9 9 9 9 9 9 9 9 9 9 9 9 9 9 9 9 9 9 9 9 9 9 9 9 9 9 9 10 10 10 10 11 11 12 12 12 12 11 11 11 10 10 10 10 10 11 11 12 13 13 13 12 12 12 12 12 13 12 12 11 11 11 12 13 14 14 13 13
13 12 12 12 12 12 12 13 13 13 13 13 13 13 13 13 12 12 11 11 10 10 10 10 9 9 9 9 9 9 10 10 10 10 10 10 10 10 10 10 10 10 10 10 10 10 10 10 10 10 10 10 10 10 10 10 10 10 10 10 10 10 10 10 10 11 11 11 12 12 12 12 12 12 11 11 10 10 10 10 10 11 12 12 13 13 13 12 12 12 12 12 12 12 12 11 10 11 12 13 14 13 13
14 13 13 13 13 13 13 13 13 14 14 14 14 14 14 13 13 13 13 12 11 11 11 11 10 10 10 10 10 10 10 10 11 11 11 11 11 11 11 11 11 11 11 11 11 11 10 10 10 10 11 11 11 11 11 10 10 10 10 10 10 10 10 10 10 11 11 11 11 12 12 13 12 12 12 11 11 10 10 10 10 11 11 12 12 13 13 13 12 12 12 12 12 12 12 11 10 10 11 12 13 13 13
15 14 14 14 14 14 14 14 14 14 14 15 15 15 14 14 14 14 13 13 12 12 12 11 11 10 11 11 11 11 11 11 11 11 12 12 12 12 12 12 12 12 11 11 11 11 11 11 11 11 11 11 11 11 11 11 11 11 11 11 10 10 10 10 10 11 11 11 11 12 12 12 12 12 12 11 11 11 10 10 10 11 11 11 12 12 12 13 12 12 12 12 12 12 12 12 11 10 10 10 11 12 12
16 15 15 15 15 15 15 15 15 15 15 16 16 15 15 15 15 15 14 14 13 13 13 12 12 11 11 12 12 12 12 12 12 12 12 12 13 13 12 12 12 12 12 12 12 12 12 12 11 11 11 11 11 12 12 12 12 11 11 11 11 11 11 11 11 11 11 11 11 11 12 12 12 12 12 12 11 11 11 10 10 11 11 12 12 12 12 13 13 12 12 12 11 12 12 12 11 10 10 10 10 11 12
17 16 16 16 16 16 16 16 16 16 16 17 17 16 16 16 16 16 15 15 14 14 14 14 13 12 12 12 13 13 13 13 13 13 13 13 13 13 13 13 13 13 13 13 12 12 12 12 12 12 12 12 12 12 12 12 12 12 12 12 12 11 11 11 11 11 11 11 11 11 11 12 12 12 12 12 11 11 11 11 11 11 11 12 12 12 12 12 13 13 12 12 11 11 12 12 11 11 10 10 10 10 11
17 17 17 17 17 17 17 17 17 17 17 18 17 17 17 17 17 17 16 16 16 15 15 15 14 14 13 13 13 13 13 14 14 14 14 14 14 14 14 14 14 13 13 13 13 13 13 13 13 13 13 12 12 12 12 13 12 12 12 12 12 12 12 12 11 11 11 11 11 12 12 12 12 12 12 12 12 11 11 11 11 11 12 12 12 12 12 12 12 13 12 12 12 11 12 11 11 11 11 11 10 10 11
18 18 18 17 17 18 18 18 18 18 18 18 18 18 18 18 18 18 17 17 16 16 16 16 15 15 14 14 14 14 14 14 15 15 15 15 15 15 15 15 14 14 14 14 14 13 13 13 13 13 13 13 13 13 13 13 13 13 13 13 12 12 12 12 12 12 12 12 12 12 12 12 13 13 13 13 12 12 11 11 11 11 12 12 13 12 12 12 12 13 12 12 12 12 11 11 11 11 11 11 11 10 11
20 19 19 18 19 19 19 19 19 19 19 19 19 19 19 19 18 18 18 18 17 17 17 17 16 16 15 15 15 15 15 15 16 16 16 16 16 16 16 15 15 15 14 14 14 14 14 14 14 14 14 14 14 14 14 14 14 14 13 13 13 13 13 12 12 12 12 12 12 13 13 13 13 13 13 13 13 12 12 12 11 12 12 13 13 13 12 12 13 13 12 12 12 12 11 11 11 11 11 11 11 11 11
22 21 20 20 20 20 21 20 20 20 19 20 20 20 19 19 19 19 19 19 18 18 18 18 18 17 17 16 16 16 16 16 17 17 17 17 17 17 16 16 16 16 16 15 15 15 15 15 15 15 14 14 14 14 14 14 14 14 14 14 14 13 13 13 13 13 13 13 13 13 13 13 14 14 14 14 13 13 12 12 12 12 12 13 13 13 13 13 13 13 13 13 12 12 12 11 11 11 10 11 11 11 11
23 22 21 21 22 22 22 21 21 20 20 20 21 20 20 20 20 20 20 20 19 19 19 19 19 18 18 17 17 17 17 17 18 18 18 18 18 17 17 17 17 17 17 16 16 16 16 16 15 15 15 15 15 15 14 14 14 15 15 14 14 14 14 14 13 13 13 13 13 13 14 14 14 14 15 15 14 13 13 13 13 13 13 13 13 13 13 13 13 13 13 13 13 12 12 11 11 11 10 11 11 11 11
25 24 23 23 23 23 23 23 22 21 21 21 21 21 20 20 20 21 21 21 21 20 20 20 20 20 19 19 18 18 18 19 19 19 19 19 18 18 18 18 18 18 18 18 17 17 17 17 16 16 16 16 15 15 15 15 15 15 15 15 15 15 15 14 14 14 14 13 13 14 14 14 14 15 15 15 15 14 14 14 14 14 14 14 14 13 13 13 13 13 14 13 13 13 12 12 11 11 11 11 11 11 11
26 26 25 25 25 25 24 24 23 23 22 22 22 21 21 21 21 21 21 22 22 21 21 21 21 21 21 20 20 19 20 20 20 20 20 20 19 19 19 19 19 19 19 19 18 18 18 18 17 17 17 16 16 16 16 16 16 16 16 16 16 16 15 15 15 15 14 14 14 14 14 14 15 15 15 15 15 15 15 15 15 15 15 14 14 14 13 13 13 13 14 14 14 13 13 12 11 11 11 11 11 11 11
28 27 27 27 26 26 26 26 25 24 23 23 22 22 21 21 22 22 22 23 22 22 22 22 22 22 22 22 22 21 21 21 21 21 21 21 20 20 20 20 20 20 20 20 20 19 19 19 18 18 18 17 17 17 17 17 16 17 17 17 16 16 16 16 16 15 15 15 15 15 15 15 15 15 15 16 16 16 16 16 15 15 15 15 15 15 14 13 13 13 14 14 14 14 13 12 11 11 11 12 12 12 12
29 29 28 28 28 28 28 28 27 25 24 24 23 23 22 22 22 23 23 23 24 24 24 24 24 24 24 24 23 23 23 23 22 22 22 22 21 21 21 21 21 21 21 21 20 20 20 20 19 19 19 18 18 18 18 18 18 18 18 17 17 17 17 17 17 16 16 16 16 15 15 16 16 16 16 16 16 16 17 17 16 16 16 16 16 15 15 14 14 14 14 14 14 14 14 13 12 11 12 12 12 12 12
30 29 29 29 29 29 29 29 28 26 26 25 24 24 23 23 23 24 24 25 25 25 25 25 25 25 25 25 25 25 24 24 24 23 23 23 22 22 22 22 22 21 22 22 21 21 21 21 21 20 20 19 19 19 19 19 19 19 19 18 18 18 18 18 18 17 17 17 16 16 16 16 17 17 17 17 17 17 17 17 17 17 17 17 16 16 16 15 15 14 14 14 14 14 14 13 12 12 12 12 13 13 13
30 30 30 30 30 30 30 30 29 28 27 26 26 25 24 24 24 25 25 26 27 27 27 27 27 27 27 27 26 26 25 25 25 25 25 24 23 23 23 23 23 23 23 23 22 22 22 22 22 21 21 20 20 20 20 20 20 20 20 20 19 19 19 19 18 18 18 18 17 17 17 17 17 17 18 18 17 17 17 17 17 18 18 17 17 17 16 16 16 15 15 14 14 14 15 14 13 12 12 13 13 13 13
31 31 31 31 31 32 31 31 30 29 28 28 27 27 27 26 26 26 27 28 28 28 28 28 28 28 28 28 28 27 26 26 26 26 26 25 24 24 24 24 24 24 24 23 23 23 23 23 23 22 22 21 21 21 21 21 21 21 21 21 21 20 20 20 19 19 19 18 18 18 18 18 18 18 18 18 18 18 18 18 18 18 18 18 18 18 17 17 17 16 16 15 14 14 15 15 14 13 12 13 13 13 14
32 32 32 32 33 33 33 32 31 30 30 30 30 29 29 28 28 28 28 29 29 29 29 29 29 29 29 29 29 28 27 27 27 27 27 26 26 26 25 25 25 25 25 24 24 25 25 24 24 23 23 23 22 22 22 22 22 22 22 22 22 21 21 21 20 20 19 19 19 18 18 18 19 19 19 19 19 19 19 19 18 18 18 18 18 18 18 18 17 17 17 16 15 15 15 15 15 14 13 13 13 14 14
34 34 34 34 34 34 33 33 32 32 32 32 32 32 31 31 30 30 30 31 31 31 31 31 31 31 31 31 30 30 29 29 29 29 28 28 27 27 26 26 26 26 26 26 26 26 26 25 25 24 24 24 23 23 23 23 23 23 23 23 22 22 22 21 21 21 20 20 19 19 19 19 19 19 19 19 19 19 19 19 19 19 19 19 19 19 18 18 18 18 17 17 16 15 15 15 15 15 14 13 13 14 14
36 36 36 35 35 35 34 34 34 34 34 34 34 34 34 33 33 33 33 32 32 32 32 32 32 33 33 32 32 31 30 30 30 30 29 29 29 28 27 27 27 27 27 27 27 27 27 26 26 26 25 25 25 25 25 25 24 24 24 24 23 23 23 22 22 22 21 21 20 19 19 19 20 20 20 19 19 19 19 19 19 19 19 19 19 19 19 19 18 18 18 18 17 16 15 16 16 16 15 14 14 14 14
37 37 37 37 37 36 36 36 36 36 36 36 36 36 36 36 36 35 35 34 34 34 34 34 34 35 35 34 34 33 32 32 31 31 31 30 30 29 28 28 28 28 28 28 29 29 28 28 27 27 26 26 26 26 26 26 25 25 25 25 24 24 23 23 23 23 22 21 21 20 20 20 20 20 20 20 20 19 19 19 20 20 20 20 20 19 19 19 18 18 18 18 17 17 16 16 16 16 16 15 15 14 14
39 39 39 39 38 38 38 38 37 37 38 38 38 38 38 38 38 37 37 37 37 36 36 36 36 36 36 36 35 35 34 34 33 33 32 32 31 30 30 30 30 30 30 30 30 30 29 29 28 28 28 28 28 28 28 27 27 26 26 25 25 25 24 24 24 24 23 22 21 21 20 20 20 20 20 20 20 19 19 19 20 20 20 20 20 20 19 19 19 19 18 18 18 17 17 16 16 16 17 16 16 15 15
41 41 41 41 40 40 40 39 39 39 40 40 40 40 40 40 40 39 39 39 39 39 39 39 38 38 38 38 38 37 37 36 35 34 34 33 32 32 31 31 31 31 31 32 32 31 31 30 30 29 29 30 30 30 29 28 28 27 27 26 26 25 25 25 25 24 24 23 22 21 21 21 21 21 20 20 20 20 19 19 19 20 20 20 20 20 20 19 19 19 19 19 19 18 17 17 17 17 17 17 16 16 15
44 43 43 43 43 42 42 42 41 41 41 41 41 41 41 41 41 41 41 40 41 41 41 41 40 40 40 40 40 40 39 38 37 36 35 34 34 33 33 33 33 33 33 33 33 33 32 32 31 31 31 32 32 31 30 30 29 28 28 27 27 27 26 26 25 25 25 24 23 22 22 21 21 21 21 20 20 20 20 20 20 20 20 20 20 20 20 19 19 19 19 19 19 18 18 17 17 17 17 17 17 17 16
46 46 45 45 45 44 44 44 43 43 43 43 43 43 43 43 42 42 42 42 42 42 43 42 42 42 42 42 42 42 41 40 39 38 37 36 36 35 35 35 35 35 35 35 35 34 34 33 33 33 33 33 33 32 32 31 30 29 29 28 28 28 27 27 26 26 25 25 24 23 22 22 21 21 21 21 20 20 20 20 20 20 20 20 20 20 20 20 19 19 19 19 19 19 18 18 17 17 17 17 18 17 17
47 47 47 47 46 46 46 45 45 45 45 44 44 44 44 44 44 43 43 43 43 43 43 44 44 44 44 44 43 43 43 42 41 40 39 38 38 38 37 37 37 37 37 37 36 36 35 35 36 36 36 35 34 34 33 32 31 30 30 30 29 29 28 27 27 27 26 26 25 24 23 23 22 22 21 21 21 20 20 20 20 20 20 20 20 20 20 20 20 19 19 19 19 18 18 18 18 17 18 18 18 18 18
49 48 48 48 48 47 47 47 47 46 46 46 46 46 46 45 45 45 44 44 44 44 44 44 44 45 45 45 45 45 44 43 43 42 41 41 40 40 40 40 39 39 39 38 38 38 37 38 38 38 37 37 36 35 34 33 32 32 31 31 30 30 29 28 28 27 27 26 26 25 24 24 23 22 22 21 21 21 20 20 20 20 20 20 20 20 20 20 20 19 19 19 18 18 18 18 18 18 18 18 17 18 18
50 49 49 49 49 49 48 48 48 48 47 47 47 47 47 46 46 46 45 45 45 45 44 44 44 45 45 46 46 46 45 45 44 44 43 43 43 43 43 42 42 41 41 40 40 40 40 40 40 40 39 38 38 37 36 34 34 33 33 32 31 31 30 29 29 28 27 27 27 26 25 24 24 23 22 22 21 21 21 21 20 20 20 20 20 20 20 20 20 20 19 19 18 18 18 18 18 18 18 18 17 17 18
50 50 50 50 50 49 49 49 49 48 48 48 48 48 47 47 46 46 46 45 45 45 44 44 45 45 45 46 46 46 46 45 45 44 44 44 45 45 45 44 44 44 44 43 43 42 42 42 42 42 41 40 39 38 37 36 35 34 34 33 33 32 32 31 30 29 28 28 28 27 26 25 24 24 23 22 22 22 21 21 21 21 21 21 21 21 21 20 20 20 19 19 18 18 18 18 18 18 18 18 17 18 18
50 50 50 50 50 50 50 49 49 49 49 49 48 48 47 47 47 47 46 46 45 45 45 45 45 46 46 47 47 47 46 46 45 45 44 45 46 47 47 47 47 47 46 46 45 45 44 44 44 44 43 42 41 40 38 37 36 36 35 35 34 34 33 32 30 30 29 29 28 27 27 26 25 24 23 23 22 22 22 21 21 21 21 21 21 21 21 21 20 20 19 19 19 18 18 18 18 18 18 17 17 18 18
51 50 50 50 50 50 49 49 49 49 49 48 48 48 48 47 47 47 47 47 46 46 46 46 46 46 46 47 47 47 46 46 45 45 45 46 47 47 47 47 47 48 49 48 47 46 46 46 46 46 45 44 43 41 40 39 38 38 37 36 36 35 34 33 31 30 30 29 29 28 27 26 25 24 23 23 23 22 22 22 21 21 21 21 22 22 21 21 21 20 20 19 19 18 18 18 18 17 17 17 17 17 18
50 50 50 50 49 49 49 49 49 49 48 48 48 48 47 47 47 47 47 47 47 46 46 46 46 46 47 47 47 47 46 46 46 46 46 47 47 47 46 44 42 40 39 39 41 43 44 44 46 46 45 44 43 42 41 40 39 38 38 37 36 35 34 33 31 31 30 29 29 28 27 26 25 24 23 23 23 22 22 22 22 22 22 22 22 22 22 21 21 20 20 20 19 19 18 18 18 17 17 17 17 17 17
50 50 49 49 49 49 49 49 49 48 48 48 48 48 48 47 47 47 47 47 47 47 46 46 46 46 47 47 47 47 47 47 47 47 46 46 45 45 43 40 39 38 36 32 33 37 40 40 40 41 40 38 37 36 36 36 36 36 35 35 34 33 33 32 31 30 30 29 28 27 27 26 25 24 23 23 23 23 22 22 22 22 22 22 22 22 22 22 21 21 20 20 19 19 19 18 18 17 17 16 16 16 17
49 48 48 48 48 48 48 48 48 48 48 47 47 48 48 48 48 47 47 47 47 47 47 46 46 46 47 47 48 48 47 47 46 47 47 46 44 42 39 38 39 40 39 32 28 30 36 35 32 32 33 31 30 31 32 32 33 33 32 32 31 31 30 30 30 29 29 29 28 27 26 25 24 24 24 23 23 23 23 23 23 23 23 23 23 23 22 22 21 21 20 20 19 19 19 18 18 17 17 16 16 16 16
46 46 46 46 47 47 47 47 47 47 47 47 47 47 48 48 48 47 47 47 47 46 47 47 46 46 47 47 47 47 47 47 47 47 47 46 45 43 41 40 36 33 32 30 27 26 31 31 30 30 33 32 31 30 31 32 31 31 30 30 29 29 29 29 29 29 29 28 27 26 25 25 24 24 24 24 24 24 23 23 23 23 23 23 23 23 23 22 21 21 21 20 20 19 19 19 18 18 17 17 17 16 16
44 45 45 45 45 45 45 45 46 46 46 46 46 47 47 47 47 46 46 46 46 46 47 47 47 46 46 46 46 46 46 46 47 47 47 47 46 45 44 42 35 27 23 24 26 28 27 27 28 29 32 31 29 28 29 29 29 28 28 28 28 27 27 28 28 28 28 27 25 25 25 25 24 24 24 24 24 24 24 24 24 23 23 23 23 23 23 22 22 21 21 21 20 20 19 19 18 18 17 17 17 16 16
42 43 43 43 43 44 44 44 45 45 45 45 46 46 46 46 46 46 47 47 47 47 46 47 47 47 47 46 46 46 47 47 47 48 47 47 46 46 46 45 43 38 31 29 28 28 27 25 23 22 25 25 23 22 23 23 24 25 26 26 26 26 26 27 27 27 27 26 26 25 25 25 25 25 25 25 25 24 24 24 24 24 24 24 23 23 23 22 22 21 21 21 21 20 20 19 19 18 18 17 17 17 17
40 41 41 41 42 42 43 43 44 44 45 45 45 46 46 46 47 47 47 47 47 46 46 46 47 48 47 46 46 46 47 47 47 47 47 46 46 47 47 47 46 45 46 45 41 36 33 29 27 26 25 25 25 25 23 22 23 24 25 25 26 26 26 26 27 27 27 27 27 26 26 25 25 25 25 25 24 24 24 24 24 24 24 24 24 23 23 22 22 22 21 21 21 21 20 20 19 18 18 18 17 17 17
39 39 40 40 41 41 42 42 43 44 44 45 45 46 46 47 47 47 46 47 47 46 47 47 47 47 47 47 46 46 47 48 47 46 46 46 47 47 47 47 46 46 45 46 46 45 42 38 35 34 30 28 29 30 28 26 25 25 25 25 25 25 26 27 27 28 28 28 28 27 26 25 25 25 25 24 24 24 24 24 25 25 25 24 24 23 23 22 22 22 22 21 21 21 20 20 19 19 18 18 18 17 17
38 38 39 39 40 40 41 41 42 43 44 44 45 46 46 46 46 45 46 46 46 46 47 47 47 47 46 47 47 47 48 48 47 45 45 44 46 47 46 45 45 45 45 45 45 45 46 45 44 39 33 30 29 29 29 29 28 26 26 25 25 26 26 27 28 29 29 29 28 28 27 26 25 25 24 24 24 24 24 25 25 25 25 25 24 23 23 22 22 22 22 22 21 21 21 20 19 19 19 18 18 17 17
37 38 38 38 39 39 40 40 41 42 42 43 44 44 45 45 45 45 45 46 46 46 46 47 47 47 47 47 47 47 47 47 47 46 45 45 45 45 45 43 44 44 44 44 44 44 45 46 46 46 42 38 34 32 32 32 31 29 28 28 27 26 27 28 29 29 30 29 29 28 27 26 26 25 25 24 25 25 25 25 25 25 25 25 24 23 23 23 23 22 22 22 22 21 21 20 20 19 19 18 18 18 18
Wind_Direction
223 234 241 238 234 229 219 200 183 167 154 147 142 137 131 126 124 123 121 118 116 114 112 107 103 99 94 87 80 71 62 53 45 40 37 36 37 39 43 44 43 41 40 39 39 38 36 34 32 30 28 26 24 21 18 17 17 16 13 12 26 42 48 47 47 49 50 48 47 46 45 45 45 44 43 42 40 39 39 40 41 40 39 38 36 35 33 32 32 32 32 32 30 29 28 26 25 24 23 23 22 22 22
236 242 244 245 243 240 240 227 210 188 167 154 145 138 131 126 124 122 119 117 116 114 111 108 105 103 99 94 87 79 68 57 47 40 36 34 33 34 36 38 39 38 37 37 36 35 33 30 28 26 24 21 20 18 15 14 14 14 11 7 21 38 46 43 42 43 43 42 41 41 42 41 41 40 40 40 39 37 37 38 40 40 38 37 35 34 33 32 31 31 31 30 29 28 26 25 24 24 23 21 21 21 21
238 241 246 247 249 251 251 246 233 214 188 167 152 143 136 130 124 119 116 114 113 112 109 109 108 107 104 99 93 84 74 62 51 42 36 33 32 31 31 32 33 34 34 33 33 32 30 27 25 23 20 18 16 14 12 11 11 11 8 4 16 35 43 41 40 40 39 38 35 34 35 36 36 35 35 35 35 35 34 34 37 39 38 35 33 32 31 30 30 29 29 29 28 26 24 23 23 23 22 21 20 19 20
238 242 245 250 254 256 258 257 250 234 211 183 165 154 145 137 129 120 116 113 112 110 109 108 108 108 105 101 95 89 81 70 58 46 37 33 32 30 29 29 29 29 29 29 29 28 27 24 22 20 17 15 12 10 9 8 7 7 5 2 13 32 41 39 37 37 37 36 33 30 29 30 30 29 30 29 29 31 31 31 33 36 37 34 31 29 28 28 27 27 27 28 26 25 22 21 21 21 21 20 19 18 18
239 243 246 251 255 259 261 263 259 248 229 202 181 167 159 150 140 131 122 118 113 112 108 107 107 105 104 100 96 91 85 77 64 52 41 33 31 29 28 28 26 25 25 24 25 25 23 21 19 17 15 12 10 7 6 5 4 4 2 360 10 28 36 36 34 33 34 33 32 29 27 26 25 25 25 24 24 25 26 27 28 31 32 30 27 26 25 25 25 24 24 25 25 23 21 20 19 18 18 18 18 17 16
242 246 250 253 257 260 262 264 263 256 241 221 201 186 175 168 159 150 139 130 122 116 113 109 107 103 100 95 91 89 84 78 67 53 42 34 28 25 25 25 24 23 22 20 19 20 19 19 17 15 13 11 8 5 3 2 1 0 359 358 6 20 25 28 28 28 29 29 28 26 23 22 22 22 22 21 21 21 22 24 25 26 27 25 22 21 19 21 21 21 21 22 23 22 20 19 18 17 17 16 16 15 15
242 248 252 255 258 261 263 264 263 259 249 235 218 204 192 185 177 170 159 149 140 132 124 119 112 104 95 89 83 78 75 66 58 49 39 30 25 21 19 19 20 19 19 17 15 14 14 14 14 13 11 8 6 3 2 1 360 358 356 356 2 11 15 17 20 21 23 24 24 22 20 19 19 19 19 18 18 18 19 21 22 23 22 21 18 16 15 16 16 17 17 18 21 20 19 17 16 16 15 14 14 14 14
242 248 252 256 258 261 263 265 264 261 255 246 234 221 210 200 194 187 181 173 165 154 147 137 126 113 93 81 69 59 51 44 38 31 26 22 18 13 12 11 12 13 13 12 10 9 9 9 10 9 8 6 3 1 360 359 357 356 354 353 356 3 7 10 12 15 18 20 20 19 17 15 15 16 17 16 16 16 16 18 19 19 19 17 15 13 11 12 13 13 13 14 16 18 16 15 14 14 13 12 12 12 12
241 247 252 256 259 261 263 265 265 263 260 254 244 235 223 215 208 205 201 194 187 180 173 165 154 136 108 69 43 25 18 10 7 6 7 6 4 4 3 3 4 5 5 6 5 3 3 4 4 5 4 2 360 358 357 356 355 354 352 350 353 357 1 0 3 7 12 15 16 15 14 12 12 13 13 13 13 13 13 14 15 15 15 14 12 10 9 9 10 11 11 10 10 13 13 12 12 12 11 10 9 9 9
242 248 252 256 259 261 263 264 266 265 262 259 253 245 235 227 222 219 217 212 209 206 200 199 193 191 206 313 333 334 338 341 343 345 348 349 350 350 351 352 354 356 356 357 358 357 356 357 358 360 359 358 356 355 354 353 351 350 350 349 350 353 354 354 355 358 3 8 11 11 10 9 9 9 10 10 11 11 11 11 11 11 12 12 10 8 7 6 7 8 7 7 7 7 9 9 9 9 9 8 7 6 6
241 248 253 256 259 261 263 264 265 265 264 261 257 251 244 237 232 229 228 226 226 226 225 229 234 244 266 285 297 309 315 321 324 327 331 334 336 337 338 341 343 346 347 349 349 349 348 349 350 351 352 351 350 350 349 348 347 347 347 347 348 348 350 350 350 351 353 358 2 4 5 5 5 6 6 7 7 8 8 7 7 7 8 9 8 6 5 5 5 5 4 4 4 3 4 5 6 6 6 6 6 5 4
242 247 253 257 260 261 263 264 265 265 264 262 259 255 250 244 239 236 236 236 238 240 243 246 254 262 273 283 291 297 304 308 312 316 320 323 326 327 328 330 332 335 338 338 340 340 340 341 342 343 344 344 344 343 343 342 342 343 343 344 345 345 346 347 348 347 348 350 352 355 358 360 2 3 4 4 4 5 5 4 3 3 4 5 5 4 3 3 3 3 3 3 2 1 0 1 1 2 3 3 3 3 3
241 247 253 257 260 262 264 264 264 264 264 262 260 257 253 248 244 241 241 243 246 248 252 257 262 269 276 282 289 293 298 301 305 309 312 315 317 319 319 321 323 325 327 329 330 331 331 332 333 334 335 336 337 336 337 337 338 339 341 342 344 343 343 344 345 346 346 345 345 347 350 354 358 360 2 2 2 1 1 0 360 360 360 2 2 1 2 2 2 2 1 1 1 360 358 358 357 357 359 0 1 1 1
240 246 252 257 260 263 264 265 265 265 264 262 261 258 254 251 247 245 245 246 249 254 257 261 265 270 275 279 285 289 293 296 299 301 304 307 309 310 311 313 315 317 318 319 321 322 322 323 324 325 327 328 330 331 331 333 334 336 339 341 342 342 341 341 341 343 344 344 344 343 345 349 353 357 360 1 1 0 359 358 357 357 357 358 359 360 360 0 360 359 358 359 359 359 357 356 354 352 354 357 359 359 358
241 246 251 256 260 262 264 265 265 265 264 262 261 258 256 253 250 248 248 249 252 256 260 264 267 271 274 277 281 285 288 291 293 296 298 300 302 303 304 305 307 308 310 312 313 314 314 315 316 318 319 322 323 325 326 328 331 334 336 339 340 340 340 338 338 340 342 342 343 343 344 346 350 354 357 360 1 360 359 357 356 355 355 356 357 358 359 359 358 357 356 356 357 357 356 354 351 349 350 353 356 356 355
242 245 250 255 258 261 263 264 265 264 264 263 261 259 257 255 253 251 251 251 253 256 260 263 266 270 273 275 278 280 283 286 288 291 293 294 295 296 298 299 301 302 304 304 306 307 307 309 310 312 314 316 319 321 323 325 328 331 334 336 337 338 338 337 336 337 339 340 341 342 343 345 347 350 354 358 360 360 359 357 356 355 355 355 356 357 358 358 357 356 354 354 355 356 356 353 350 347 347 350 353 353 352
244 246 250 254 257 260 262 263 264 264 263 263 262 260 259 257 255 254 253 253 254 255 258 261 264 267 270 272 274 277 280 281 283 285 287 289 290 291 292 294 295 296 298 299 300 301 302 303 306 307 310 312 315 317 320 322 326 328 330 333 334 335 335 334 334 334 336 337 339 340 342 343 345 347 350 354 357 359 358 357 355 354 354 355 356 357 357 358 358 356 353 352 352 354 356 353 349 346 345 346 349 349 348
245 247 249 253 256 259 261 263 263 264 264 263 262 261 260 259 257 256 255 254 254 255 256 258 260 262 265 268 271 273 275 277 279 281 283 285 286 288 289 290 292 293 294 295 296 298 299 301 302 304 306 309 311 314 316 319 322 325 327 329 331 331 331 332 332 332 333 334 336 338 339 341 343 344 346 349 353 356 357 356 354 352 351 353 354 355 356 358 358 356 353 350 350 352 355 354 351 346 344 343 345 345 344
245 246 248 251 254 257 259 261 262 263 263 263 263 262 262 261 259 258 257 257 256 256 257 257 258 260 262 265 268 270 272 274 276 277 279 281 282 285 286 288 289 291 292 293 295 296 298 299 301 303 305 306 309 311 313 316 318 321 323 325 327 327 328 329 329 330 330 331 333 334 336 338 340 341 343 345 348 351 354 355 352 350 349 350 352 352 354 356 357 356 352 350 349 350 353 355 354 349 344 342 342 342 341
244 245 247 249 251 254 257 259 260 262 262 263 263 262 262 261 261 260 259 258 258 258 258 258 259 260 262 264 266 268 270 272 274 275 277 278 280 281 283 285 287 288 290 291 293 295 296 298 300 302 303 305 307 308 310 313 315 317 319 321 322 323 324 325 327 327 328 329 330 331 333 335 337 339 340 341 343 346 348 351 350 348 346 347 348 349 350 353 355 354 351 349 348 348 350 354 356 353 346 343 341 341 340
243 245 246 248 250 252 254 256 258 260 261 262 262 262 262 262 262 261 260 259 259 259 259 259 260 261 262 263 264 266 268 271 273 274 275 277 278 279 281 283 284 286 287 289 291 293 295 296 298 300 301 303 305 306 308 309 311 313 315 316 317 319 320 322 323 325 326 326 327 328 330 332 333 335 336 337 338 340 342 345 346 344 342 343 344 346 347 350 351 351 350 349 348 348 348 351 355 354 349 344 342 340 340
244 245 247 248 250 251 253 255 257 259 260 262 262 262 262 262 262 261 261 261 261 261 260 261 261 262 262 262 263 264 266 268 270 272 274 275 276 277 279 280 282 283 285 287 289 290 292 294 295 297 299 301 302 304 305 306 307 309 310 311 313 314 316 317 319 321 322 323 324 325 326 327 329 330 332 333 333 334 335 338 339 339 339 339 340 342 344 346 347 348 347 347 348 348 347 348 352 355 352 346 342 340 339
245 246 247 249 251 252 254 256 257 259 261 261 262 262 263 263 263 263 263 263 263 262 262 263 262 262 261 262 263 263 264 265 267 269 271 272 274 275 276 277 279 280 282 284 286 287 289 290 292 293 295 297 299 300 301 303 303 304 305 306 308 309 311 313 314 316 318 319 320 321 322 323 324 325 327 328 328 328 329 330 332 333 333 333 335 338 341 342 343 343 343 345 346 347 346 345 347 351 352 347 342 339 337
245 246 248 250 251 253 255 256 258 259 260 261 263 264 264 264 264 265 265 265 265 264 264 265 264 262 262 263 263 264 264 265 266 267 268 269 271 272 273 274 275 277 279 281 282 284 286 287 289 290 291 293 295 296 297 298 299 300 301 302 303 305 306 308 310 312 314 315 317 317 318 319 320 321 322 323 323 324 323 324 326 327 327 327 329 334 337 339 338 338 340 341 343 345 345 343 343 346 348 346 343 340 337
246 247 248 249 252 254 255 257 258 259 260 261 263 264 265 265 265 266 267 267 266 266 267 267 266 265 264 264 265 265 266 266 266 266 267 267 268 269 270 271 272 274 276 278 279 281 283 285 286 287 288 290 291 292 293 294 295 296 297 298 299 301 303 305 307 308 310 312 313 314 315 315 316 317 318 319 319 319 319 319 320 321 322 322 324 328 333 334 333 333 336 338 340 342 343 341 341 342 345 344 343 341 336
247 248 249 250 252 253 255 256 257 258 259 261 263 264 265 265 266 266 267 268 268 268 269 269 268 267 266 266 266 267 267 268 268 268 268 267 267 268 269 269 270 272 273 275 277 279 280 282 283 285 286 287 288 289 290 291 292 293 294 294 296 297 299 301 303 305 307 309 311 312 313 313 313 313 314 315 315 315 315 314 315 316 318 318 320 323 327 329 328 329 332 335 337 338 339 338 339 341 342 341 341 340 336
248 248 249 250 251 253 255 256 256 257 258 260 262 263 264 265 266 267 268 268 269 269 270 270 270 270 269 268 268 268 269 269 270 270 269 269 269 269 269 270 270 271 272 274 275 277 278 279 281 282 283 284 285 287 287 289 289 290 291 292 293 295 296 298 300 302 305 307 309 310 311 311 311 311 311 312 313 312 312 311 311 312 313 314 315 317 321 324 324 325 328 331 333 334 335 335 337 341 341 339 338 338 335
249 249 250 250 251 252 253 255 256 257 258 260 261 263 264 265 266 267 269 269 270 270 271 271 272 272 271 269 269 269 269 269 269 270 270 270 270 271 271 272 272 273 273 274 275 275 276 277 278 279 281 282 283 284 285 287 288 289 290 290 291 292 294 295 297 300 302 304 307 308 309 309 309 309 309 309 310 311 310 309 308 308 309 310 311 314 317 320 320 321 323 326 328 330 332 333 336 338 338 337 336 334 333
251 250 250 250 251 252 253 255 256 257 258 260 261 263 264 266 267 269 270 271 271 271 272 272 272 272 272 271 270 269 269 269 269 269 270 271 271 272 273 274 275 275 275 275 275 275 275 275 276 277 278 279 281 282 283 285 286 288 289 289 290 291 291 293 294 297 299 301 304 305 307 307 307 307 307 308 309 309 309 307 306 305 305 306 307 310 313 316 317 318 320 322 324 326 328 330 332 334 335 334 333 331 329
252 252 251 251 251 252 254 256 257 258 259 260 262 264 265 267 268 269 271 271 272 272 273 273 273 273 273 272 271 270 269 268 268 269 269 270 272 273 274 275 276 276 276 276 275 275 274 274 275 275 276 277 279 280 282 283 285 286 287 288 289 289 290 291 293 294 297 299 301 303 304 305 305 305 306 307 308 308 307 306 304 303 302 303 304 306 309 312 314 315 317 318 320 322 324 326 328 330 332 331 330 328 326
255 254 253 252 252 253 255 256 258 259 259 261 263 265 266 268 269 270 271 272 272 273 273 274 274 274 274 273 271 270 268 267 267 268 269 270 272 273 274 275 276 276 276 276 275 275 275 275 275 275 275 276 277 279 280 282 283 285 286 287 288 289 290 290 292 293 295 296 298 300 302 303 303 304 304 305 306 306 305 304 303 301 300 300 300 302 305 308 310 312 313 315 317 318 320 322 324 327 328 327 326 325 323
256 255 255 254 254 254 256 257 258 259 260 261 263 266 267 268 269 270 271 272 272 273 274 274 274 274 274 273 271 270 268 267 268 269 270 271 271 273 273 274 275 275 276 276 276 276 276 276 275 275 276 276 277 278 280 281 283 284 285 286 287 288 290 290 291 292 293 295 296 298 300 301 302 302 302 303 303 303 303 302 300 300 299 298 298 298 299 303 306 308 310 312 313 314 316 318 320 322 324 323 322 321 320
256 256 256 256 256 256 257 257 258 259 260 262 264 266 267 268 269 270 271 272 272 273 273 273 273 273 273 272 271 270 269 269 269 270 271 271 272 273 273 273 274 275 275 275 276 276 276 276 276 277 277 278 279 280 281 282 283 284 285 286 287 288 289 290 291 291 292 293 295 296 298 300 300 300 300 299 299 300 300 299 298 298 297 297 296 295 296 297 300 304 306 308 309 311 312 314 316 318 319 319 318 318 318
257 257 258 258 258 258 258 258 259 260 261 262 263 265 266 267 268 269 270 270 271 271 271 271 272 272 272 273 272 272 271 271 272 272 272 272 273 273 273 273 274 274 275 275 276 276 276 277 277 278 278 279 280 281 282 283 283 284 285 286 287 287 288 289 289 290 290 291 293 294 296 298 298 298 297 296 296 296 297 297 296 296 295 294 294 293 293 293 295 299 302 304 306 307 309 311 313 315 316 315 314 314 314
258 259 260 260 260 260 260 260 260 261 261 262 263 264 265 266 266 267 267 268 268 269 269 270 271 272 273 273 273 273 274 274 274 274 274 274 274 274 273 274 274 274 274 275 275 276 276 277 277 278 278 279 280 281 282 282 283 284 284 285 285 286 286 286 287 287 288 289 290 292 294 295 296 295 295 294 293 293 293 293 293 292 292 291 290 290 290 290 292 294 296 299 301 304 306 308 309 311 311 311 311 311 310
260 260 261 261 261 262 262 262 262 262 262 262 263 264 264 264 264 264 265 266 267 267 269 270 271 271 272 273 274 274 275 275 275 275 275 275 275 274 273 273 274 274 274 275 275 275 275 276 276 277 278 279 279 280 281 282 282 282 283 283 283 283 283 284 284 284 285 286 287 289 290 292 292 292 292 291 290 290 290 289 289 288 288 288 287 287 288 288 288 289 291 294 298 301 303 305 306 307 307 307 307 307 307
261 261 262 262 263 263 264 264 264 264 264 264 264 264 263 263 262 263 263 264 266 267 268 269 270 271 272 273 274 274 275 275 275 275 275 275 275 274 273 274 274 274 274 274 275 274 274 275 276 276 277 277 278 279 279 279 280 280 280 281 281 281 281 281 281 281 282 282 283 285 287 289 289 289 288 287 287 287 287 287 286 285 284 285 285 286 286 286 286 286 287 290 293 297 299 302 303 303 303 304 303 304 305
263 263 263 264 264 265 265 265 266 266 265 265 265 264 264 263 263 263 263 264 265 266 268 268 269 270 271 272 273 274 274 274 274 275 275 275 275 274 274 274 274 274 274 274 274 273 273 274 275 275 276 276 277 277 277 277 277 277 278 278 278 278 278 278 278 278 279 279 280 281 283 285 285 285 284 284 283 284 285 285 284 283 282 282 283 284 284 285 285 285 285 286 289 292 295 299 300 300 300 300 301 301 302
265 265 265 265 265 265 266 267 267 267 266 266 266 266 265 265 264 263 263 263 264 265 266 267 268 269 270 271 272 273 273 273 273 274 275 275 275 274 275 275 274 274 274 273 273 272 273 274 274 275 275 276 276 276 275 275 275 275 275 275 275 275 276 276 276 276 276 276 277 278 280 281 282 281 280 280 280 281 282 282 282 281 280 280 281 281 282 283 283 284 284 285 286 288 291 295 297 298 298 298 298 299 300
268 268 267 267 267 267 268 268 268 268 267 267 267 267 267 265 265 264 263 264 264 265 266 267 267 268 269 270 271 272 272 272 273 273 274 274 274 275 276 275 274 274 274 273 272 272 273 273 274 274 275 275 275 274 273 273 273 273 273 273 273 273 274 274 274 274 274 274 274 275 277 278 279 278 277 276 276 277 279 280 280 280 279 279 279 280 280 280 281 282 283 284 284 285 288 291 294 295 296 296 296 296 297
271 270 270 269 270 270 269 269 269 269 268 268 268 268 267 266 266 265 265 265 265 265 266 266 267 267 269 270 271 271 272 272 272 272 273 273 274 275 276 275 274 274 274 273 273 273 273 273 274 274 274 274 273 272 272 272 272 272 272 272 272 272 272 272 272 272 272 272 273 273 275 276 276 275 273 272 273 275 277 278 279 278 278 278 278 278 278 278 279 280 281 282 282 283 285 287 290 293 294 294 294 294 295
272 272 272 272 272 272 271 271 271 270 270 269 269 269 268 267 267 267 266 266 266 266 266 266 267 268 269 270 271 271 271 271 271 271 272 273 275 275 275 274 274 273 273 273 273 273 273 273 273 273 273 272 271 271 271 271 271 271 271 271 271 271 270 270 271 271 272 272 272 272 273 274 274 272 270 269 271 273 276 277 277 277 277 278 278 277 277 277 277 277 278 279 280 281 282 284 286 289 291 292 292 292 293
274 274 274 274 274 274 273 273 272 272 271 271 271 270 269 269 268 268 267 267 266 266 266 266 267 267 268 269 270 270 270 271 271 272 273 274 274 275 274 273 273 272 272 272 272 272 273 273 272 272 271 270 270 270 270 270 270 270 270 270 270 270 269 269 270 271 271 271 271 272 273 274 273 271 268 268 269 273 275 277 277 277 277 277 276 276 276 275 275 275 276 277 278 278 279 281 283 286 288 290 291 291 291
275 275 275 275 275 275 274 274 274 273 273 273 272 272 271 271 270 269 268 267 267 266 267 267 267 267 268 268 269 270 270 271 272 273 274 274 273 273 272 271 271 271 270 270 271 271 272 272 272 271 270 269 269 269 270 270 270 270 270 269 269 269 269 269 270 270 271 271 272 272 273 273 271 269 266 266 269 273 276 277 276 276 276 275 275 275 274 274 273 273 274 275 276 277 277 278 280 283 285 288 289 290 289
275 275 275 275 275 275 275 275 275 275 274 274 274 273 273 272 272 271 269 268 267 267 267 267 268 268 268 268 269 270 271 272 273 273 273 272 272 271 270 270 269 269 269 269 269 270 271 271 270 269 268 268 269 269 270 270 270 269 269 269 268 268 268 268 269 270 271 271 272 272 273 272 271 268 265 266 269 273 276 277 276 275 275 275 275 274 273 273 272 272 272 273 274 275 276 277 278 280 282 285 287 288 288
275 275 275 275 276 276 276 276 275 275 275 275 274 274 274 273 272 272 271 270 269 268 268 268 269 269 269 269 269 270 271 271 272 272 271 271 270 270 269 269 268 268 267 268 268 269 269 269 269 268 268 268 269 269 269 269 269 269 268 268 268 268 268 268 268 269 270 271 272 272 273 272 269 266 264 265 269 273 275 276 275 275 275 275 275 274 273 271 271 271 271 271 272 274 275 276 277 278 280 282 285 287 288
275 275 275 275 275 276 276 276 276 275 275 275 274 274 274 274 273 273 273 273 272 272 271 271 271 270 270 270 270 270 270 270 271 270 271 270 270 269 268 268 267 267 267 267 268 268 268 268 267 267 268 268 268 269 269 269 269 268 268 268 268 267 267 267 268 269 270 271 272 272 272 271 268 264 263 265 269 273 274 275 274 274 275 275 274 273 272 271 270 270 270 270 271 272 274 275 276 277 278 280 282 285 288
274 274 274 275 275 275 275 275 275 275 274 274 274 274 275 275 275 276 276 275 275 275 275 274 273 272 272 271 271 270 270 270 270 270 270 270 270 269 268 267 267 267 267 267 267 267 267 266 266 267 267 267 268 268 269 269 268 268 268 268 267 267 267 267 267 268 269 270 271 271 271 269 266 263 262 265 269 272 274 274 274 274 274 274 274 273 272 271 270 270 270 270 270 271 273 275 276 277 278 279 281 284 287
274 274 274 275 275 274 274 274 275 274 274 274 275 275 276 277 277 277 277 277 276 276 276 274 273 272 272 272 272 271 271 270 270 270 269 269 269 269 269 268 268 268 268 268 267 267 266 266 266 266 267 267 267 268 268 268 267 267 267 267 266 266 266 266 267 267 268 268 269 269 269 267 264 261 262 265 269 272 273 273 273 274 274 274 274 273 272 271 271 270 270 270 270 271 272 273 275 276 276 277 279 282 285
274 274 274 275 274 274 274 275 275 275 275 275 276 277 278 278 277 277 277 276 276 275 274 274 273 272 271 271 272 273 272 271 270 269 268 267 266 267 269 269 270 270 269 268 267 266 266 266 266 266 266 267 267 267 267 267 267 267 266 266 266 266 266 266 266 266 266 266 267 267 267 265 262 260 262 266 270 272 273 273 274 274 275 274 274 273 272 271 271 271 270 270 270 270 271 271 272 272 273 274 275 278 281
275 274 274 275 275 275 275 275 275 275 276 276 277 277 277 276 276 276 275 275 275 274 273 273 273 274 272 272 273 274 273 271 270 267 265 266 267 268 268 270 271 272 271 270 269 268 268 267 267 267 267 267 267 267 267 267 267 266 266 265 265 265 265 265 264 264 264 264 264 264 264 262 260 260 262 267 270 272 273 274 275 275 275 275 274 273 272 271 271 271 271 270 270 270 270 270 270 270 271 272 273 275 277
275 275 275 275 275 275 276 276 276 276 276 276 276 276 276 276 275 275 275 275 275 275 274 273 273 273 274 274 274 274 273 271 270 268 266 267 270 271 269 268 268 269 271 274 274 273 272 270 269 268 268 268 269 269 269 268 267 266 266 265 265 264 264 263 262 261 261 261 261 261 261 259 258 259 263 268 271 273 274 275 276 276 276 275 274 273 272 271 271 271 271 271 271 271 270 270 271 271 272 273 273 275 277
274 274 275 275 275 276 276 276 276 276 276 275 276 276 276 276 276 276 276 275 275 275 275 274 273 272 273 274 273 273 273 272 271 271 270 269 268 268 266 263 260 261 267 273 277 277 274 272 273 273 273 273 273 272 271 269 267 266 265 264 263 263 262 261 259 258 257 257 257 257 257 257 257 260 264 269 272 274 275 276 276 277 277 276 275 273 273 272 272 272 272 272 272 272 272 272 272 273 273 273 274 275 277
275 275 275 276 276 276 276 276 276 277 277 277 277 277 277 277 277 276 276 276 276 275 275 275 275 273 271 271 272 273 274 274 273 272 272 269 265 261 259 258 260 263 267 269 273 277 275 274 276 278 278 276 274 272 270 268 267 266 265 264 262 261 259 257 256 254 254 254 254 254 255 256 257 261 266 270 273 275 276 276 276 276 276 276 275 274 273 273 273 273 273 273 273 273 273 273 273 273 273 274 275 276 276
277 278 278 278 278 277 277 278 278 278 278 278 277 277 277 277 277 277 277 277 277 277 276 276 275 273 271 271 272 274 274 275 274 273 271 271 267 261 258 259 260 263 266 265 263 265 271 276 278 278 277 275 273 271 269 268 267 267 265 263 261 259 257 255 253 252 251 251 251 252 253 255 257 262 267 272 275 276 276 276 275 275 275 275 274 274 273 273 273 274 274 274 274 273 273 273 273 273 273 274 275 276 276
279 280 279 279 279 278 279 279 279 278 279 278 278 277 277 278 278 278 278 277 277 276 275 275 275 274 273 272 272 273 273 273 273 272 271 271 270 268 265 260 255 253 258 261 260 262 268 273 277 279 278 277 275 273 271 269 267 265 264 262 259 257 255 253 251 250 249 249 248 249 251 253 256 261 266 272 275 276 275 275 274 274 274 274 273 273 273 274 274 274 274 274 274 273 273 272 272 272 272 274 275 276 276
281 280 280 280 280 280 279 279 278 278 278 278 278 278 278 278 278 277 276 276 275 275 275 275 274 275 275 274 272 271 271 269 270 271 270 270 270 270 268 263 257 253 252 256 261 266 270 271 275 279 280 281 279 275 273 270 266 263 261 259 258 256 254 251 249 247 246 245 245 246 247 249 253 258 265 269 273 274 274 274 274 273 273 273 273 273 273 274 274 275 275 275 274 273 273 271 271 271 272 273 274 276 278
282 281 281 281 281 280 279 279 278 278 278 278 278 278 278 277 276 275 275 276 276 276 276 275 274 274 274 274 272 270 268 266 266 268 269 270 269 268 267 267 267 265 261 260 261 263 266 270 270 271 275 281 279 275 272 269 266 263 261 259 257 255 252 249 247 245 243 242 242 242 243 246 251 257 263 267 270 272 273 274 273 273 272 272 272 273 273 274 274 275 275 275 274 274 273 271 271 271 271 273 275 277 280
284 283 283 282 282 281 280 280 279 278 278 278 278 277 277 276 276 276 276 277 277 277 276 274 274 274 274 273 271 268 266 267 266 266 267 267 267 267 266 266 265 264 262 262 261 260 260 262 264 266 270 276 277 275 272 269 266 265 263 261 258 254 251 248 245 243 241 240 239 239 241 246 253 259 263 266 269 272 273 273 272 271 271 271 272 273 274 274 275 275 275 274 274 274 273 272 271 271 272 274 276 279 280
286 285 284 283 282 282 281 280 279 279 278 278 277 277 277 277 278 278 277 277 277 276 275 274 274 274 273 272 270 268 268 269 269 267 263 262 264 266 266 265 264 264 263 263 263 262 260 259 260 262 264 266 271 275 274 270 267 266 264 262 259 255 251 248 246 243 240 239 238 238 241 249 257 262 264 266 270 273 274 273 271 269 269 270 272 273 274 274 275 274 274 274 273 273 272 272 271 271 272 274 277 278 279
287 286 285 284 283 283 282 281 280 279 279 278 278 278 278 279 279 279 277 277 276 276 275 275 275 274 273 272 271 271 271 271 270 267 263 260 261 264 266 265 266 266 266 266 264 263 261 261 261 260 259 259 263 269 272 271 269 267 264 262 259 256 253 250 247 243 240 238 238 239 243 252 260 264 265 267 271 274 275 272 270 268 268 270 272 273 274 275 274 274 273 272 272 271 271 270 270 270 271 274 276 278 279